Location: Ebenezer
(18.2167°N, 63.0667°W)
Time: 23:54:41
(UTC+00:00)

CZ-4 R/B - Pass Details

Date: 26 January 2020
Orbit: 533 x 597 km, 97.7° (Epoch: 27 February)

Event Time Altitude Azimuth Distance (km) Brightness Sun altitude
Rises 23:42:33 0° 202° (SSW) 2,725 5.4 -23.5°
Reaches altitude 10° 23:45:23 10° 225° (SW) 1,846 4.7 -24.2°
Maximum altitude 23:47:49 16° 263° (W) 1,524 4.5 -24.8°
Drops below altitude 10° 23:50:18 10° 301° (WNW) 1,873 4.6 -25.3°
Sets 23:53:12 0° 323° (NW) 2,786 5.2 -26.0°
